OV1-4 R/B

Satellite information

Favourite Embed

Satellite Type and Status

ROCKET BODYIN ORBIT

Key statistics

Satellite OV1-4 R/B at a glance.

Uptime

21648

Days in orbit

Revolutions

≈ 13.9

Per day

Orbit

SSO

Sun Synchronous Orbit

Inclination

144.5

Latest

Satellite identification and parameters

Extended collection of information and parameters for OV1-4 R/B.

Object identification

Identified? True

Debris? False

Object name: OV1-4 R/B

International designator: 1966-025D

Object number (NORAD): 2124

Object ID (CCSDS): 2124

Country: UNITED STATES OF AMERICA (US)

Current information (Y/N): Y

RCS size: MEDIUM

Orbital parameters

Period: 103.763 minutes

Inclination: 144.5093 deg

SMA: 7314.587 km

Apoapsis: 995.302 km

Periapsis: 877.601 km

RAAN: 114.1041 deg

Eccentricy: 0.0080456

Argument of periapsis: 152.9821 deg

Mean anomaly: 207.5067 deg

Mean motion: 13.87771892 rev/day

Mean motion (dot): 0.00000346 rev/day2

B* drag term: 0.000063515 1/REarth

Two-line elements (TLE)

Creation date: July 5, 2025, 5:45 p.m.

Reference frame: TEME

Reference center: EARTH

Epoch: July 5, 2025, 3:05 p.m. UTC

TLE line 0: 0 OV1-4 R/B

TLE line 1: 1 02124U 66025D 25186.62892156 .00000346 00000-0 63515-4 0 9996

TLE line 2: 2 02124 144.5093 114.1041 0080456 152.9821 207.5067 13.87771892 3430

Live tracking on map

Real-time ground track for satellite OV1-4 R/B.

In-orbit conjunctions

A list of the most updated potential collisions computed for object OV1-4 R/B.

Target Orbit TCA Probability of collision Miss distance Type
GGSE 3 LEO 2024-11-05 07:40:48 0.002332664 122.0 (m) PAYLOAD

Associated space launch

The OV1 (Orbiting Vehicle 1) were small research satellite to be launched piggy back on Atlas ICBM test flights. They consisted in general of the OV1 satellite and the OV1-PM propulsion module (or upper stage) to reach orbit.

OV1-4 R/B was lifted into orbit during the mission ‘Atlas D | OV1-4 & 5’, on board a Atlas D space rocket.

The launch took place on March 30, 1966, 9:20 a.m. from 576B3.

For more information about the launch, click the button.

Launch to space Atlas D | OV1-4 & 5
Atlas D | OV1-4 & 5

Agency: N/A

Status: Launch Successful

Launch date: March 30, 1966, 9:20 a.m. UTC

Rocket: Atlas D

Launch pad: 576B3

Location: Vandenberg SFB, CA, USA

...

Latest news about this satellite

There are no fresh news available about this satellite. Check back as we update our databases every day.


Newsletter sign-up

Weekly statistics, charts and insights to help you stay on top of the space industry.